Weather in Rivne

Ukraine / Kirovohrad Region     48°14′25″N   31°44′56″E
temp.,
°C
wind,
m/s
gust,
m/s
humid.,
%
clouds,
%
prec.,
mm/h
press.,
hPa
HPBL,
m
18 may, tue
tue1800:00+14sse228370 0.0 100415
03:00+13s369096 0.0 1004123
06:00+12sse4893100 0.1 1004231
09:00+17s687737 0.3 1004595
12:00+19sse7966100 2.2 10021478
15:00+15sse7986100 4.3 1001728
18:00+17ssw79706 0.7 10011173
21:00+13s510854 1.2 1001243
19 may, wed
wed1900:00+11s48903 0.0 1001131
03:00+9s35955 0.0 100190
06:00+9sse36965 0.0 1002148
09:00+14se457870 0.0 1002820
12:00+15sse327187 0.4 1003942
15:00+18sw3360100 0.7 10031348
18:00+14w788287 0.9 1005729
21:00+12wnw71090100 0.9 1006644
20 may, thu
thu2000:00+11wnw61086100 0.0 1007610
03:00+10w51092100 0.0 1009393
06:00+9w410922 0.0 1009240
09:00+14w576758 0.0 1010632
12:00+18wsw5655100 0.0 10101665
15:00+16ssw556598 0.3 1010667
18:00+13s3687100 0.7 1011231
21:00+12s0196100 4.4 101272
21 may, fri
fri2100:00+12nne589799 2.8 1011290
03:00+11ene61195100 2.9 1012416
06:00+11ene71493100 1.3 1012442
09:00+11ene61389100 1.8 1012547
12:00+15ene81075100 0.1 1012962
15:00+15ne6977100 0.1 1012807
18:00+14nne81381100 0.0 1012445
21:00+13nne71383100 0.0 1013428
22 may, sat
sat2200:00+11nne6128796 0.0 1013357
03:00+10n61292100 0.0 1013302
06:00+10nne61190100 0.0 1013266
09:00+14nne7107984 0.0 1013490
12:00+19nne777072 0.0 1013872
15:00+21nne666528 0.0 1013997
18:00+21nne556856 0.0 10131027
21:00+15n49906 0.0 1014191